Location: Barcelona
(41.3830°N, 2.1830°E)
Time: 22:52:44
(UTC+02:00)

ISS - Pass Details

Date: 17 July 2017
Orbit: 400 x 408 km, 51.6° (Epoch: 24 July)

Event Time Altitude Azimuth Distance (km) Brightness Sun altitude
Rises 05:26:55 0° 307° (NW) 2,316 -0.1 -10.9°
Reaches altitude 10° 05:29:39 10° 331° (NNW) 1,458 -0.9 -10.5°
Maximum altitude 05:31:39 15° 9° (N) 1,189 -0.7 -10.2°
Drops below altitude 10° 05:33:40 10° 47° (NE) 1,459 0.6 -9.9°
Sets 05:36:24 0° 72° (ENE) 2,320 1.5 -9.5°
